FW6151 Weather Reports


Display with metric or nautical units.
time (UTC)temp
F
wind
direction
speed
MPH
gust
MPH
rain 1hr
in
rain 24hr
in
rain mn
in
humidity
%
barometer
mb
20260509105032 72 322 2.0 8.0 0.00 0.00 0.00 46 1018.1
20260509104528 73 215 1.0 6.0 0.00 0.00 0.00 47 1018.2
20260509104027 74 195 2.0 8.0 0.00 0.00 0.00 45 1018.2
20260509103526 75 186 0.0 2.0 0.00 0.00 0.00 48 1018.2
20260509103025 74 186 0.0 3.0 0.00 0.00 0.00 49 1018.2
20260509102525 73 186 0.0 3.0 0.00 0.00 0.00 52 1018.3
20260509102023 73 186 0.0 3.0 0.00 0.00 0.00 52 1018.3
20260509101524 72 168 0.0 5.0 0.00 0.00 0.00 51 1018.4
20260509101021 73 167 1.0 4.0 0.00 0.00 0.00 51 1018.4
20260509100519 72 167 0.0 3.0 0.00 0.00 0.00 54 1018.4
20260509100019 72 167 2.0 3.0 0.00 0.00 0.00 51 1018.4
20260509095518 71 167 0.0 0.0 0.00 0.00 0.00 52 1018.5
20260509095016 72 167 0.0 2.0 0.00 0.00 0.00 53 1018.6
20260509094521 71 167 0.0 3.0 0.00 0.00 0.00 52 1018.6
20260509094014 71 167 2.0 4.0 0.00 0.00 0.00 53 1018.7
20260509093513 71 168 0.0 5.0 0.00 0.00 0.00 55 1018.8
20260509093010 71 167 1.0 5.0 0.00 0.00 0.00 55 1018.7
20260509092514 70 146 0.0 4.0 0.00 0.00 0.00 57 1018.8
20260509092008 70 22 0.0 4.0 0.00 0.00 0.00 58 1018.8
20260509091510 70 22 0.0 3.0 0.00 0.00 0.00 58 1018.9
20260509091007 70 21 0.0 3.0 0.00 0.00 0.00 59 1018.9
20260509090506 69 21 1.0 3.0 0.00 0.00 0.00 60 1018.9
20260509090015 68 130 0.0 3.0 0.00 0.00 0.00 62 1019.0
20260509085503 68 130 0.0 4.0 0.00 0.00 0.00 63 1019.0
20260509085001 67 136 0.0 3.0 0.00 0.00 0.00 63 1019.0
20260509084606 67 136 0.0 4.0 0.00 0.00 0.00 64 1019.0
20260509084059 66 140 0.0 4.0 0.00 0.00 0.00 65 1019.0
20260509083557 65 117 0.0 6.0 0.00 0.00 0.00 67 1019.0
20260509083058 64 120 1.0 6.0 0.00 0.00 0.00 67 1019.1
20260509082556 64 146 0.0 3.0 0.00 0.00 0.00 68 1019.1
20260509082053 63 138 0.0 4.0 0.00 0.00 0.00 69 1019.1
20260509081552 63 139 2.0 4.0 0.00 0.00 0.00 69 1019.1
20260509081051 63 89 0.0 5.0 0.00 0.00 0.00 71 1019.2
20260509080549 62 53 1.0 5.0 0.00 0.00 0.00 72 1019.2
20260509080106 62 136 0.0 5.0 0.00 0.00 0.00 73 1019.2
20260509075548 61 136 2.0 5.0 0.00 0.00 0.00 75 1019.2
20260509075052 61 134 0.0 2.0 0.00 0.00 0.00 77 1019.3
20260509074545 60 135 0.0 4.0 0.00 0.00 0.00 77 1019.2
20260509074047 60 135 1.0 5.0 0.00 0.00 0.00 77 1019.3
20260509073542 59 129 1.0 4.0 0.00 0.00 0.00 78 1019.4
20260509073042 59 34 0.0 3.0 0.00 0.00 0.00 79 1019.4
20260509072542 59 33 1.0 3.0 0.00 0.00 0.00 79 1019.4
20260509072041 59 74 0.0 2.0 0.00 0.00 0.00 79 1019.4
20260509071541 59 74 0.0 2.0 0.00 0.00 0.00 80 1019.5
20260509071041 58 76 0.0 3.0 0.00 0.00 0.00 80 1019.5
20260509070541 58 76 0.0 3.0 0.00 0.00 0.00 80 1019.5
20260509070044 58 76 0.0 2.0 0.00 0.00 0.00 81 1019.5
20260509065540 58 32 0.0 3.0 0.00 0.00 0.00 82 1019.5
20260509065039 57 54 0.0 3.0 0.00 0.00 0.00 83 1019.4
20260509064540 57 350 0.0 3.0 0.00 0.00 0.00 84 1019.5
20260509064039 57 360 0.0 3.0 0.00 0.00 0.00 85 1019.5
20260509063539 56 309 0.0 2.0 0.00 0.00 0.00 87 1019.6
20260509063044 55 309 0.0 2.0 0.00 0.00 0.00 88 1019.5
20260509062538 55 309 0.0 3.0 0.00 0.00 0.00 88 1019.5
20260509062038 54 309 0.0 3.0 0.00 0.00 0.00 89 1019.5
20260509061538 54 310 1.0 3.0 0.00 0.00 0.00 90 1019.4
20260509061038 53 251 0.0 2.0 0.00 0.00 0.00 90 1019.4
20260509060536 53 253 0.0 2.0 0.00 0.00 0.00 90 1019.4
20260509060035 53 247 0.0 2.0 0.00 0.00 0.00 91 1019.5
20260509055533 52 274 0.0 2.0 0.00 0.00 0.00 91 1019.4
20260509055033 52 261 0.0 3.0 0.00 0.00 0.00 91 1019.4
20260509054532 51 274 0.0 3.0 0.00 0.00 0.00 91 1019.3
20260509054031 51 273 1.0 3.0 0.00 0.00 0.00 91 1019.4
20260509053530 51 273 0.0 2.0 0.00 0.00 0.00 91 1019.5
20260509053039 51 273 0.0 3.0 0.00 0.00 0.00 91 1019.5
20260509052528 50 304 1.0 4.0 0.00 0.00 0.00 91 1019.4
20260509052027 50 302 1.0 4.0 0.00 0.00 0.00 91 1019.3
20260509051530 50 282 0.0 3.0 0.00 0.00 0.00 91 1019.3
20260509051030 50 315 1.0 3.0 0.00 0.00 0.00 91 1019.4
20260509050526 49 317 1.0 3.0 0.00 0.00 0.00 91 1019.2
20260509050045 49 317 1.0 3.0 0.00 0.00 0.00 91 1019.2
20260509045525 49 320 0.0 3.0 0.00 0.00 0.00 91 1019.2
20260509045023 49 319 0.0 3.0 0.00 0.00 0.00 91 1019.1
20260509044523 49 317 0.0 0.0 0.00 0.00 0.00 90 1019.1
20260509044022 49 317 0.0 0.0 0.00 0.00 0.00 90 1019.1
20260509043521 49 317 0.0 0.0 0.00 0.00 0.00 90 1019.0
20260509043033 49 317 0.0 0.0 0.00 0.00 0.00 90 1019.1
20260509042521 49 317 0.0 0.0 0.00 0.00 0.00 90 1019.0
20260509042019 49 315 0.0 0.0 0.00 0.00 0.00 90 1019.0
20260509041519 49 316 0.0 0.0 0.00 0.00 0.00 90 1019.0
20260509041019 49 316 0.0 0.0 0.00 0.00 0.00 90 1018.9
20260509040518 49 316 0.0 0.0 0.00 0.00 0.00 90 1018.8
20260509040018 49 316 0.0 0.0 0.00 0.00 0.00 90 1018.9
20260509035517 50 316 0.0 0.0 0.00 0.00 0.00 90 1018.8
20260509035019 50 318 0.0 6.0 0.00 0.00 0.00 90 1018.8
20260509034517 50 318 1.0 6.0 0.00 0.00 0.00 90 1018.8
20260509034016 50 182 0.0 3.0 0.00 0.00 0.00 90 1018.7
20260509033519 50 182 0.0 3.0 0.00 0.00 0.00 90 1018.6
20260509033019 50 182 0.0 3.0 0.00 0.00 0.00 89 1018.5
20260509032521 50 182 0.0 3.0 0.00 0.00 0.00 89 1018.6
20260509032013 50 182 0.0 0.0 0.00 0.00 0.00 89 1018.8
20260509031513 50 182 0.0 1.0 0.00 0.00 0.00 89 1018.9
20260509031012 50 182 0.0 1.0 0.00 0.00 0.00 89 1018.9
20260509030512 50 182 0.0 0.0 0.00 0.00 0.00 89 1018.9
20260509030018 50 182 0.0 0.0 0.00 0.00 0.00 89 1018.9
20260509025510 51 182 0.0 1.0 0.00 0.00 0.00 89 1018.9
20260509025010 51 182 0.0 2.0 0.00 0.00 0.00 89 1019.0
20260509024510 51 182 0.0 3.0 0.00 0.00 0.00 89 1019.0
20260509024016 51 182 0.0 4.0 0.00 0.00 0.00 89 1019.0
20260509023610 51 182 1.0 4.0 0.00 0.00 0.00 89 1019.0
20260509023010 51 182 1.0 3.0 0.00 0.00 0.00 88 1019.0
20260509022511 51 182 0.0 2.0 0.00 0.00 0.00 88 1019.0
20260509022009 51 182 0.0 0.0 0.00 0.00 0.00 88 1019.0
20260509021509 51 182 0.0 0.0 0.00 0.00 0.00 88 1018.9
20260509021008 51 182 0.0 0.0 0.00 0.00 0.00 88 1019.0
20260509020507 51 182 0.0 2.0 0.00 0.00 0.00 88 1019.1
20260509020007 51 182 0.0 2.0 0.00 0.00 0.00 88 1019.0
20260509015508 51 182 0.0 1.0 0.00 0.00 0.00 88 1019.0
20260509015010 51 182 0.0 0.0 0.00 0.00 0.00 87 1019.0
20260509014507 52 182 0.0 0.0 0.00 0.00 0.00 87 1019.0
20260509014005 52 182 0.0 0.0 0.00 0.00 0.00 87 1019.0
20260509013505 52 182 0.0 0.0 0.00 0.00 0.00 87 1019.0
20260509013006 52 182 0.0 0.0 0.00 0.00 0.00 87 1019.0
20260509012505 52 182 0.0 0.0 0.00 0.00 0.00 86 1019.0
20260509012004 52 182 0.0 1.0 0.00 0.00 0.00 86 1019.0
20260509011507 52 182 0.0 1.0 0.00 0.00 0.00 86 1019.0
20260509011005 52 182 0.0 0.0 0.00 0.00 0.00 86 1019.0
20260509010502 52 182 0.0 0.0 0.00 0.00 0.00 86 1019.0
20260509010007 52 182 0.0 1.0 0.00 0.00 0.00 86 1019.0
20260509005501 52 182 0.0 2.0 0.00 0.00 0.00 86 1019.0
20260509005002 53 182 0.0 1.0 0.00 0.00 0.00 85 1019.0
20260509004604 53 182 0.0 0.0 0.00 0.00 0.00 85 1019.0
20260509004103 53 182 0.0 0.0 0.00 0.00 0.00 85 1019.0
20260509003559 53 182 0.0 0.0 0.00 0.00 0.00 84 1018.9
20260509003059 53 182 0.0 0.0 0.00 0.00 0.00 84 1019.0
20260509002558 53 182 0.0 0.0 0.00 0.00 0.00 84 1019.0
20260509002100 54 182 0.0 1.0 0.00 0.00 0.00 84 1019.0
20260509001558 54 182 0.0 2.0 0.00 0.00 0.00 83 1018.9
20260509001056 54 182 0.0 2.0 0.00 0.00 0.00 83 1019.0
20260509000557 54 182 0.0 0.0 0.00 0.00 0.00 83 1018.9
20260509000055 54 182 0.0 0.0 0.00 0.00 0.00 83 1019.0
20260508235554 55 182 0.0 0.0 0.00 0.00 0.00 83 1019.0
20260508235054 55 182 0.0 0.0 0.00 0.00 0.00 82 1019.0
20260508234556 55 182 0.0 0.0 0.00 0.00 0.00 82 1019.0
20260508234055 55 182 0.0 0.0 0.00 0.00 0.00 82 1019.1
20260508233552 55 182 0.0 0.0 0.00 0.00 0.00 81 1019.1
20260508233053 55 182 0.0 0.0 0.00 0.00 0.00 81 1019.2
20260508232550 56 182 0.0 0.0 0.00 0.00 0.00 81 1019.2
20260508232049 56 182 0.0 0.0 0.00 0.00 0.00 81 1019.3
20260508231554 56 182 0.0 0.0 0.00 0.00 0.00 80 1019.2
20260508231047 56 182 0.0 0.0 0.00 0.00 0.00 80 1019.1
20260508230545 56 182 0.0 0.0 0.00 0.00 0.00 79 1019.0
20260508230045 57 182 0.0 0.0 0.00 0.00 0.00 79 1019.0
20260508225545 57 182 0.0 0.0 0.00 0.00 0.00 79 1019.1
20260508225046 57 182 0.0 0.0 0.00 0.00 0.00 78 1019.1
20260508224602 57 182 0.0 1.0 0.00 0.00 0.00 78 1019.1
20260508224045 58 182 0.0 1.0 0.00 0.00 0.00 78 1019.2
20260508223544 58 182 0.0 1.0 0.00 0.00 0.00 77 1019.1
20260508223042 58 182 0.0 1.0 0.00 0.00 0.00 76 1019.0
20260508222542 58 182 0.0 1.0 0.00 0.00 0.00 76 1019.1
20260508222040 59 182 0.0 0.0 0.00 0.00 0.00 76 1019.0
20260508221548 59 182 0.0 0.0 0.00 0.00 0.00 75 1018.9
20260508221038 59 182 0.0 0.0 0.00 0.00 0.00 75 1018.8
20260508220539 59 182 0.0 0.0 0.00 0.00 0.00 75 1018.8
20260508220036 59 182 0.0 0.0 0.00 0.00 0.00 75 1018.7
20260508215535 60 182 0.0 2.0 0.00 0.00 0.00 75 1018.7
20260508215036 60 182 0.0 2.0 0.00 0.00 0.00 74 1018.7
20260508214540 60 182 0.0 2.0 0.00 0.00 0.00 74 1018.8
20260508214036 60 182 0.0 2.0 0.00 0.00 0.00 74 1018.7
20260508213535 60 182 0.0 3.0 0.00 0.00 0.00 73 1018.7
20260508213037 61 182 0.0 3.0 0.00 0.00 0.00 73 1018.6
20260508212535 61 182 0.0 2.0 0.00 0.00 0.00 72 1018.4
20260508212035 61 182 0.0 2.0 0.00 0.00 0.00 71 1018.4
20260508211536 61 182 0.0 3.0 0.00 0.00 0.00 71 1018.5
20260508211034 62 182 0.0 3.0 0.00 0.00 0.00 71 1018.5
20260508210534 62 182 0.0 4.0 0.00 0.00 0.00 70 1018.4
20260508210036 62 182 0.0 4.0 0.00 0.00 0.00 70 1018.4
20260508205534 62 182 1.0 4.0 0.00 0.00 0.00 70 1018.3
20260508205035 63 182 0.0 0.0 0.00 0.00 0.00 70 1018.4
20260508204535 63 182 0.0 0.0 0.00 0.00 0.00 70 1018.4
20260508204033 63 182 0.0 0.0 0.00 0.00 0.00 70 1018.4
20260508203533 63 182 0.0 1.0 0.00 0.00 0.00 70 1018.5
20260508203035 63 182 0.0 0.0 0.00 0.00 0.00 70 1018.5
20260508202534 63 182 0.0 0.0 0.00 0.00 0.00 69 1018.5
20260508202035 64 182 0.0 3.0 0.00 0.00 0.00 69 1018.4
20260508201538 64 182 0.0 3.0 0.00 0.00 0.00 69 1018.4
20260508201033 64 182 0.0 0.0 0.00 0.00 0.00 68 1018.5
20260508200533 64 182 0.0 0.0 0.00 0.00 0.00 68 1018.4
20260508200044 64 182 0.0 0.0 0.00 0.00 0.00 67 1018.3
20260508195532 64 182 0.0 1.0 0.00 0.00 0.00 67 1018.2
20260508195034 64 182 0.0 1.0 0.00 0.00 0.00 67 1018.1
20260508194532 64 182 0.0 3.0 0.00 0.00 0.00 67 1018.0
20260508194031 64 182 0.0 3.0 0.00 0.00 0.00 67 1017.9
20260508193532 65 294 0.0 3.0 0.00 0.00 0.00 67 1017.7
20260508193037 65 309 1.0 3.0 0.00 0.00 0.00 66 1017.5
20260508192532 65 22 0.0 2.0 0.00 0.00 0.00 66 1017.4
20260508192032 65 22 0.0 3.0 0.00 0.00 0.00 65 1017.3
20260508191533 65 22 0.0 3.0 0.00 0.00 0.00 65 1017.1
20260508191031 66 339 0.0 3.0 0.00 0.00 0.00 64 1016.9
20260508190631 66 194 0.0 2.0 0.00 0.00 0.00 64 1017.0
20260508190030 66 194 0.0 2.0 0.00 0.00 0.00 63 1017.0
20260508185530 66 198 0.0 1.0 0.00 0.00 0.00 62 1016.9
20260508185030 66 198 0.0 2.0 0.00 0.00 0.00 62 1016.8
20260508184530 67 198 0.0 5.0 0.00 0.00 0.00 62 1016.8
20260508184029 67 225 1.0 5.0 0.00 0.00 0.00 61 1016.8
20260508183529 67 315 0.0 3.0 0.00 0.00 0.00 59 1016.7
20260508183030 67 323 0.0 3.0 0.00 0.00 0.00 58 1016.6
20260508182529 67 323 1.0 5.0 0.00 0.00 0.00 58 1016.5
20260508182031 68 316 0.0 5.0 0.00 0.00 0.00 56 1016.6
20260508181530 68 296 0.0 5.0 0.00 0.00 0.00 55 1016.5
20260508181032 68 311 1.0 5.0 0.00 0.00 0.00 54 1016.5
20260508180529 69 236 0.0 2.0 0.00 0.00 0.00 53 1016.5
20260508180031 69 285 0.0 3.0 0.00 0.00 0.00 52 1016.4
20260508175530 69 285 0.0 5.0 0.00 0.00 0.00 51 1016.4
20260508175028 70 226 1.0 5.0 0.00 0.00 0.00 50 1016.3
20260508174530 70 224 0.0 3.0 0.00 0.00 0.00 49 1016.1
20260508174028 70 211 0.0 4.0 0.00 0.00 0.00 48 1016.1
20260508173528 70 221 1.0 4.0 0.00 0.00 0.00 46 1015.9
20260508173029 71 246 0.0 3.0 0.00 0.00 0.00 45 1016.0
20260508172528 71 337 0.0 4.0 0.00 0.00 0.00 45 1016.0
20260508172028 71 221 0.0 4.0 0.00 0.00 0.00 44 1016.0
20260508171534 71 234 0.0 3.0 0.00 0.00 0.00 44 1015.8
20260508171029 71 319 1.0 3.0 0.00 0.00 0.00 43 1015.9
20260508170527 70 279 0.0 6.0 0.00 0.00 0.00 43 1015.8
20260508170028 70 221 1.0 10.0 0.00 0.00 0.00 44 1015.7
20260508165527 71 338 1.0 10.0 0.00 0.00 0.00 45 1015.7
20260508165027 71 11 1.0 5.0 0.00 0.00 0.00 45 1015.7
20260508164526 71 170 1.0 4.0 0.00 0.00 0.00 44 1015.7
20260508164026 71 32 0.0 5.0 0.00 0.00 0.00 43 1015.7
20260508163527 71 304 0.0 6.0 0.00 0.00 0.00 42 1015.7
20260508163027 71 257 2.0 8.0 0.00 0.00 0.00 42 1015.7
20260508162526 71 320 1.0 8.0 0.00 0.00 0.00 41 1015.7
20260508162029 72 279 2.0 5.0 0.00 0.00 0.00 41 1015.7
20260508161534 71 311 0.0 4.0 0.00 0.00 0.00 44 1015.7
20260508161025 71 290 0.0 5.0 0.00 0.00 0.00 44 1015.7
20260508160524 71 304 2.0 8.0 0.00 0.00 0.00 44 1015.8
20260508160027 71 316 4.0 8.0 0.00 0.00 0.00 42 1015.8
20260508155528 71 325 1.0 6.0 0.00 0.00 0.00 43 1015.8
20260508155023 71 197 1.0 5.0 0.00 0.00 0.00 44 1015.8
20260508154524 71 215 1.0 5.0 0.00 0.00 0.00 44 1015.8
20260508154025 71 21 1.0 5.0 0.00 0.00 0.00 43 1015.8
20260508153523 71 189 1.0 4.0 0.00 0.00 0.00 42 1015.8
20260508153024 71 196 2.0 5.0 0.00 0.00 0.00 42 1015.8
20260508152523 71 5 1.0 6.0 0.00 0.00 0.00 42 1015.8
20260508152026 71 254 2.0 6.0 0.00 0.00 0.00 42 1015.8
20260508151522 71 287 3.0 8.0 0.00 0.00 0.00 43 1015.8
20260508151026 71 233 3.0 8.0 0.00 0.00 0.00 44 1016.0
20260508150521 72 228 1.0 4.0 0.00 0.00 0.00 45 1016.0
20260508150023 72 188 0.0 6.0 0.00 0.00 0.00 44 1015.9
20260508145520 72 345 3.0 6.0 0.00 0.00 0.00 44 1016.0
20260508145020 72 230 2.0 6.0 0.00 0.00 0.00 43 1016.1
20260508144535 72 293 0.0 6.0 0.00 0.00 0.00 43 1016.1
20260508144019 72 182 2.0 8.0 0.00 0.00 0.00 43 1016.1
20260508143521 72 194 3.0 8.0 0.00 0.00 0.00 44 1016.2
20260508143027 72 74 1.0 8.0 0.00 0.00 0.00 43 1016.3
20260508142518 73 330 1.0 6.0 0.00 0.00 0.00 43 1016.3
20260508142019 73 229 2.0 5.0 0.00 0.00 0.00 41 1016.3
20260508141523 73 192 1.0 5.0 0.00 0.00 0.00 40 1016.3
20260508141015 72 191 1.0 7.0 0.00 0.00 0.00 41 1016.3
20260508140515 72 183 2.0 7.0 0.00 0.00 0.00 41 1016.4
20260508140015 72 229 1.0 6.0 0.00 0.00 0.00 41 1016.4
20260508135515 72 190 1.0 6.0 0.00 0.00 0.00 42 1016.5
20260508135014 71 309 2.0 6.0 0.00 0.00 0.00 43 1016.6
20260508134514 72 212 2.0 6.0 0.00 0.00 0.00 39 1016.5
20260508134013 71 205 0.0 4.0 0.00 0.00 0.00 42 1016.4
20260508133513 71 270 2.0 6.0 0.00 0.00 0.00 42 1016.5
20260508133013 71 320 2.0 6.0 0.00 0.00 0.00 44 1016.5
20260508132512 72 314 1.0 6.0 0.00 0.00 0.00 46 1016.6
20260508132011 71 350 2.0 6.0 0.00 0.00 0.00 44 1016.6
20260508131510 71 267 1.0 8.0 0.00 0.00 0.00 47 1016.7
20260508131015 71 343 3.0 8.0 0.00 0.00 0.00 45 1016.7
20260508130508 71 341 1.0 6.0 0.00 0.00 0.00 50 1016.7
20260508130010 70 348 0.0 8.0 0.00 0.00 0.00 54 1016.8
20260508125507 70 213 2.0 9.0 0.00 0.00 0.00 49 1016.9
20260508125007 71 327 3.0 8.0 0.00 0.00 0.00 52 1016.9
20260508124506 70 223 1.0 5.0 0.00 0.00 0.00 52 1017.0
20260508124006 71 227 1.0 4.0 0.00 0.00 0.00 52 1017.0
20260508123505 71 289 1.0 6.0 0.00 0.00 0.00 53 1017.1
20260508123006 70 220 1.0 8.0 0.00 0.00 0.00 54 1017.1
20260508122504 69 246 1.0 8.0 0.00 0.00 0.00 57 1017.1
20260508122003 69 320 3.0 5.0 0.00 0.00 0.00 55 1017.1
20260508121504 69 333 1.0 9.0 0.00 0.00 0.00 57 1017.1
20260508121002 69 315 3.0 9.0 0.00 0.00 0.00 58 1017.1
20260508120502 70 233 2.0 9.0 0.00 0.00 0.00 58 1017.2
20260508120003 71 306 2.0 9.0 0.00 0.00 0.00 57 1017.2
20260508115601 70 330 1.0 4.0 0.00 0.00 0.00 58 1017.2
20260508115059 70 90 1.0 3.0 0.00 0.00 0.00 59 1017.3
20260508114603 69 350 0.0 6.0 0.00 0.00 0.00 63 1017.3
20260508114058 68 215 2.0 6.0 0.00 0.00 0.00 61 1017.4
20260508113557 68 60 1.0 8.0 0.00 0.00 0.00 63 1017.4
20260508113124 68 207 1.0 4.0 0.00 0.00 0.00 64 1017.5
20260508112556 68 343 1.0 5.0 0.00 0.00 0.00 63 1017.5
20260508112056 68 267 0.0 6.0 0.00 0.00 0.00 64 1017.5
20260508111556 68 217 1.0 6.0 0.00 0.00 0.00 63 1017.6
20260508111054 68 345 1.0 6.0 0.00 0.00 0.00 63 1017.6
20260508110553 67 201 1.0 8.0 0.00 0.00 0.00 65 1017.5
20260508110052 67 215 1.0 6.0 0.00 0.00 0.00 64 1017.6
20260508105552 67 233 2.0 6.0 0.00 0.00 0.00 64 1017.7